Weather History for KOFK - September, 2011

Change the Weather History Date:

Saturday, September 17, 2011

  Actual Average Record
Temperature  
Mean Temperature 52 °F 63 °F  
Max Temperature 54 °F 76 °F 102 °F (1895)
Min Temperature 50 °F 50 °F 32 °F (1916)
Degree Days  
Heating Degree Days 13 4  
Month to date heating degree days 96 43  
Since 1 July heating degree days 96 59  
Cooling Degree Days 0 3  
Month to date cooling degree days 45 72  
Year to date cooling degree days 1026 888  
Growing Degree Days 2 (Base 50)    
Moisture  
Dew Point 50 °F    
Average Humidity 93    
Maximum Humidity 96    
Minimum Humidity 89    
Precipitation  
Precipitation 0.01 in 0.09 in 0.60 in (1960)
Month to date precipitation 0.62 1.53  
Year to date precipitation 19.07 22.06  
Snow  
Snow 0.00 in 0.00 in - ()
Month to date snowfall 0.0 0.0  
Since 1 July snowfall 0.0 0.0  
Snow Depth 0.00 in    
Sea Level Pressure  
Sea Level Pressure 30.03 in    
Wind  
Wind Speed 10 mph (SE)    
Max Wind Speed 18 mph    
Max Gust Speed 22 mph    
Visibility 4 miles    
Events Rain    
T = Trace of Precipitation, MM = Missing Value Source: NWS Daily Summary

Daily Weather History Graph

Daily Weather History Graph

Search for Another Location

Airport or City:

Trip Planner

Search our weather history database for the weather conditions in past years. The results will help you decide how hot, cold, wet, or windy it might be!

Date:

Astronomy

Sep. 17, 2011 Rise Set
Actual Time 7:11 AM CDT 7:36 PM CDT
Civil Twilight 6:43 AM CDT 8:04 PM CDT
Nautical Twilight 6:10 AM CDT 8:36 PM CDT
Astronomical Twilight 5:36 AM CDT 9:10 PM CDT
Moon 10:00 PM CDT (9/17) 12:21 PM CDT (9/17)
Length of Visible Light 13h 20m
Length of Day
12h 24m
Waning Gibbous, 76% of the Moon is Illuminated
Sep 17
Waning Gibbous
Sep 20
Last Quarter
Sep 27
New
Oct 3
First Quarter
Oct 11
Full

Hourly Weather History & Observations

Time (CDT) Temp. Dew Point Humidity Pressure Visibility Wind Dir Wind Speed Gust Speed Precip Events Conditions
12:56 AM 50.0 °F 48.0 °F 93% 30.11 in 5.0 mi SE 10.4 mph - N/A   Overcast
1:56 AM 51.1 °F 48.0 °F 89% 30.12 in 5.0 mi SE 9.2 mph - N/A   Overcast
3:56 AM 51.1 °F 48.9 °F 92% 30.08 in 5.0 mi SE 9.2 mph - N/A   Overcast
4:45 AM 51.8 °F 48.2 °F 88% 30.08 in 2.5 mi SSE 9.2 mph - 0.00 in Rain Light Rain
4:56 AM 51.1 °F 48.9 °F 92% 30.09 in 2.5 mi SE 11.5 mph - 0.00 in Rain Light Rain
5:05 AM 51.8 °F 48.2 °F 88% 30.07 in 3.0 mi SE 11.5 mph - 0.00 in   Overcast
5:56 AM 51.1 °F 48.9 °F 92% 30.08 in 4.0 mi SE 10.4 mph - 0.00 in   Overcast
6:56 AM 51.1 °F 48.9 °F 92% 30.08 in 4.0 mi SE 10.4 mph - N/A   Overcast
7:56 AM 52.0 °F 48.9 °F 89% 30.08 in 5.0 mi SE 8.1 mph - N/A   Overcast
8:56 AM 52.0 °F 48.9 °F 89% 30.06 in 8.0 mi SE 11.5 mph - N/A   Overcast
9:56 AM 52.0 °F 50.0 °F 93% 30.06 in 5.0 mi SE 11.5 mph - N/A   Overcast
10:56 AM 53.1 °F 50.0 °F 89% 30.06 in 8.0 mi SE 9.2 mph - N/A   Overcast
11:56 AM 54.0 °F 50.0 °F 86% 30.06 in 6.0 mi SE 11.5 mph - N/A   Overcast
12:56 PM 53.1 °F 50.0 °F 89% 30.05 in 5.0 mi SE 11.5 mph - N/A   Overcast
2:51 PM 53.6 °F 50.0 °F 88% 30.01 in 2.5 mi SE 15.0 mph - N/A   Overcast
3:24 PM 53.6 °F 51.8 °F 94% 30.00 in 2.5 mi SE 12.7 mph - N/A   Overcast
3:45 PM 53.6 °F 51.8 °F 94% 29.99 in 2.0 mi SE 13.8 mph - N/A   Overcast
3:56 PM 54.0 °F 51.1 °F 90% 30.00 in 2.5 mi SE 13.8 mph - N/A   Overcast
4:56 PM 54.0 °F 51.1 °F 90% 29.99 in 2.0 mi SE 10.4 mph - N/A   Overcast
5:41 PM 53.6 °F 51.8 °F 94% 29.98 in 1.8 mi ESE 11.5 mph - N/A   Overcast
5:56 PM 54.0 °F 52.0 °F 93% 29.99 in 1.5 mi ESE 9.2 mph - N/A   Overcast
6:56 PM 53.1 °F 51.1 °F 93% 29.99 in 2.0 mi SE 11.5 mph - N/A   Overcast
7:10 PM 53.6 °F 51.8 °F 94% 29.98 in 1.8 mi ESE 10.4 mph - N/A   Overcast
7:25 PM 53.6 °F 51.8 °F 94% 29.98 in 3.0 mi SE 10.4 mph - N/A   Overcast
7:48 PM 53.6 °F 51.8 °F 94% 29.98 in 2.0 mi SE 8.1 mph - N/A   Overcast
8:15 PM 53.6 °F 51.8 °F 94% 29.98 in 1.8 mi SE 8.1 mph - 0.01 in   Overcast
8:34 PM 53.6 °F 51.8 °F 94% 29.98 in 2.0 mi SE 8.1 mph - 0.01 in   Overcast
9:12 PM 53.6 °F 51.8 °F 94% 29.99 in 3.0 mi SE 9.2 mph - N/A   Overcast
10:56 PM 54.0 °F 52.0 °F 93% 29.99 in 5.0 mi SE 10.4 mph - N/A   Overcast
11:32 PM 53.6 °F 51.8 °F 94% 30.00 in 2.5 mi SSE 8.1 mph - N/A   Overcast
11:43 PM 53.6 °F 51.8 °F 94% 30.01 in 3.0 mi South 6.9 mph - N/A   Overcast
11:56 PM 54.0 °F 52.0 °F 93% 30.02 in 3.0 mi SSE 4.6 mph - N/A   Overcast